Wind_Speed
39 39 40 41 41 41 41 41 42 44 44 45 47 47 47 48 48 48 47 46 45 46 47 46 47 47 46 46 45 44 43 44 44 43 43 42 42 41 41 42 42 43 43
38 39 40 39 38 38 39 40 40 41 43 44 45 46 47 47 47 47 45 44 43 43 44 45 45 44 45 44 43 42 42 42 42 42 41 40 40 41 41 42 42 42 43
37 39 39 39 38 39 39 40 40 40 42 42 42 44 45 45 45 44 44 44 42 41 42 42 42 43 43 42 42 42 42 42 42 41 40 40 40 41 41 42 42 42 43
35 36 37 37 38 38 38 39 40 39 40 41 41 42 44 44 44 43 43 42 42 40 41 41 41 43 42 42 42 42 42 42 41 41 40 40 40 40 41 41 41 42 43
33 34 35 36 37 36 36 37 38 38 39 39 40 40 42 42 43 42 42 41 41 41 40 40 39 40 41 42 42 41 42 41 40 40 40 40 40 40 40 41 41 42 42
32 33 34 33 34 33 34 35 36 37 38 38 38 39 39 41 41 40 40 41 41 40 40 39 39 39 40 41 41 42 42 41 40 39 39 39 40 40 41 41 42 42 43
31 32 32 31 31 32 32 33 33 35 35 36 37 37 37 37 38 39 39 40 40 39 38 39 39 38 40 41 41 40 40 39 38 38 38 38 39 39 40 41 41 42 43
30 29 29 30 30 31 31 31 31 32 33 34 35 35 35 36 37 38 38 39 39 38 38 38 39 39 39 40 39 39 38 38 37 37 37 37 38 39 40 41 41 42 43
28 29 29 30 31 32 31 31 31 31 32 34 34 34 36 37 38 37 38 38 37 37 37 37 37 38 37 37 38 37 36 35 35 36 36 36 37 37 39 40 40 40 40
27 28 28 29 30 31 30 29 30 30 32 34 35 35 37 37 37 36 36 36 37 36 36 35 35 35 34 35 35 34 33 33 33 34 34 35 36 37 38 38 37 37 38
26 27 27 28 28 29 30 29 30 30 32 32 34 36 36 36 36 36 35 34 35 35 35 34 34 33 33 33 32 31 31 32 33 32 32 33 33 34 34 35 35 36 37
26 26 26 27 28 28 30 30 29 29 29 30 32 33 34 34 33 34 33 32 32 33 33 33 32 31 31 31 30 30 31 32 33 32 32 32 32 32 32 33 34 35 36
26 25 26 27 27 27 28 29 28 28 29 29 30 31 31 32 32 32 33 32 31 31 31 31 31 30 30 30 29 29 30 31 31 31 30 30 30 31 32 33 33 34 35
24 24 25 26 26 26 26 27 27 27 28 27 28 29 30 30 30 30 30 30 30 30 30 31 31 30 30 29 29 29 29 29 29 30 29 29 30 31 32 32 32 33 34
24 24 24 24 25 25 26 26 27 27 26 25 26 27 27 28 28 28 28 29 29 30 30 30 29 29 29 29 29 28 28 28 29 28 27 28 29 30 30 30 31 32 34
24 24 24 24 24 25 25 26 27 26 25 24 24 25 25 26 27 27 28 29 28 29 29 29 29 29 28 28 28 28 27 27 27 27 27 28 29 29 30 30 31 32 34
22 22 22 22 23 24 24 25 25 25 24 23 24 25 26 25 26 27 28 28 28 28 28 29 29 28 28 27 27 27 27 26 26 27 28 29 29 29 29 30 30 31 32
22 22 22 22 22 23 24 24 25 24 24 23 25 26 27 26 26 27 28 28 28 28 28 28 28 28 27 27 26 26 26 26 26 27 28 28 28 29 29 29 30 30 31
22 22 22 22 21 22 23 23 24 24 25 24 25 26 27 27 26 26 26 26 26 27 27 27 27 27 26 26 25 25 26 26 26 26 26 27 27 28 28 28 28 28 28
23 22 22 22 22 22 23 23 23 23 24 24 24 25 26 26 26 26 26 26 25 25 26 25 25 25 26 26 25 26 25 25 25 25 25 25 25 26 26 26 26 26 27
21 21 22 22 22 22 22 23 23 23 22 22 23 24 25 26 26 25 25 25 25 25 25 25 25 24 24 24 25 25 24 24 24 24 24 23 23 23 23 24 25 25 25
21 20 21 21 22 22 22 23 24 24 23 23 23 23 23 25 25 25 24 24 25 25 25 24 24 23 22 22 22 23 22 22 22 22 22 22 21 22 22 22 22 23 24
20 20 20 20 21 22 22 23 23 24 23 23 23 23 23 24 25 25 24 23 23 23 23 23 23 22 21 21 20 20 19 19 19 19 19 20 20 20 20 20 21 22 22
20 20 19 19 20 20 21 22 22 22 23 23 23 24 24 24 24 24 24 24 23 22 22 22 22 21 20 20 21 20 19 18 18 18 19 19 19 18 18 19 20 20 21
20 20 20 20 20 21 21 21 22 22 22 22 23 23 23 23 23 23 23 23 23 22 21 21 21 21 20 20 19 19 17 16 17 18 18 18 17 17 17 18 19 19 19
19 20 20 21 21 21 21 21 21 21 21 22 22 23 22 22 22 22 22 22 22 22 21 20 20 20 20 19 19 18 17 16 16 16 17 16 16 16 16 17 17 17 17
Wind_Direction
257 257 256 254 251 250 250 250 250 249 247 246 244 242 241 241 242 243 244 245 246 246 246 246 247 247 247 247 250 253 257 259 260 261 263 264 267 269 272 275 279 281 283
257 256 255 254 250 249 250 250 250 249 247 246 244 242 240 240 240 242 242 243 245 245 245 245 245 245 246 247 249 252 256 258 259 261 264 265 267 269 272 276 279 281 283
255 255 254 253 250 250 250 249 248 247 247 246 244 242 240 240 240 241 241 243 244 244 243 242 244 245 247 249 250 252 255 257 258 261 264 265 267 269 271 275 278 281 283
256 253 253 252 249 250 250 248 247 246 247 246 244 243 241 239 238 239 240 242 242 243 242 242 244 246 248 249 249 252 255 257 258 261 263 265 267 269 272 275 277 280 282
256 254 253 251 249 249 248 246 246 246 246 245 242 243 240 238 237 240 239 240 241 242 242 242 245 247 248 248 249 253 255 256 259 262 263 264 266 269 272 274 277 280 284
257 254 252 251 251 249 247 246 247 245 242 241 240 240 239 238 238 237 239 240 240 241 242 243 245 246 248 247 249 252 253 256 259 261 263 265 267 269 272 275 278 281 284
257 253 251 251 252 250 247 246 244 242 239 238 240 239 237 236 235 236 238 239 239 239 242 243 245 246 247 248 250 251 254 256 258 260 263 266 268 270 273 276 279 281 284
255 254 252 251 250 249 247 245 243 240 240 241 242 239 236 235 235 236 237 238 237 240 242 243 245 247 249 249 249 252 254 255 258 260 264 266 268 271 274 277 279 282 284
256 254 253 252 249 247 246 245 244 241 241 241 241 240 238 236 235 234 235 237 239 241 242 244 247 249 248 248 249 252 254 256 260 262 265 267 269 271 274 277 280 283 286
253 252 252 251 248 245 244 244 244 242 240 241 240 240 238 236 235 236 237 239 239 241 242 244 245 246 246 247 249 251 255 258 261 263 266 268 269 271 274 278 281 283 287
252 251 251 249 247 245 243 244 244 243 241 240 240 240 238 238 237 237 239 240 240 241 242 242 241 242 245 247 250 253 256 258 260 262 266 269 270 271 276 280 282 284 287
252 250 249 248 247 246 244 243 242 242 241 240 241 240 237 237 238 237 237 237 239 240 239 237 238 241 244 248 251 252 255 258 259 262 266 269 270 273 277 280 283 286 289
252 249 248 246 245 246 245 243 241 241 241 240 239 236 235 235 235 234 233 234 237 238 236 235 237 240 242 246 248 251 253 257 260 262 266 269 271 274 278 282 286 289 293
252 251 249 247 246 245 244 242 241 241 240 239 236 234 232 231 231 229 229 233 235 234 234 235 237 239 241 244 248 250 253 257 259 262 265 268 272 277 280 284 288 291 294
251 252 250 248 246 245 244 242 239 238 237 236 232 228 229 229 229 230 232 234 235 235 236 237 239 240 241 244 247 250 253 257 259 261 263 269 274 279 283 285 288 292 296
254 252 250 248 246 244 243 242 238 235 234 233 231 230 231 230 230 232 233 235 235 236 237 239 239 240 243 245 247 250 254 256 258 261 265 271 275 279 284 286 289 293 296
254 252 250 247 245 242 239 237 233 233 233 232 230 229 230 230 230 231 232 234 234 234 236 238 239 239 242 246 249 252 253 253 256 261 267 272 276 280 284 287 291 293 295
253 252 250 247 244 240 237 235 234 233 231 230 229 228 230 229 228 229 231 233 235 235 237 238 238 240 243 246 248 250 252 254 259 263 268 272 275 279 284 288 291 293 295
254 253 251 246 241 237 235 233 232 232 233 234 231 228 228 227 228 229 230 232 234 234 235 236 238 240 243 245 246 248 252 256 260 264 268 272 276 279 283 287 291 293 295
255 254 251 245 239 236 234 232 232 232 233 233 231 229 227 225 226 227 229 230 231 233 234 234 236 239 242 245 248 251 252 255 260 264 268 271 275 279 282 285 288 293 296
254 253 249 243 238 234 232 231 229 230 232 231 230 229 228 224 224 226 228 230 231 233 234 235 236 238 241 247 250 252 254 255 260 263 267 270 274 278 282 285 288 293 297
254 252 248 242 237 234 233 231 229 229 230 229 228 227 226 224 225 227 229 230 231 233 235 236 236 237 242 247 251 252 254 256 259 262 265 268 272 278 283 286 290 295 299
250 248 243 239 235 234 232 229 228 227 228 227 226 227 227 226 227 228 228 228 230 231 232 233 233 234 239 244 247 251 256 257 258 261 263 265 271 277 282 287 292 297 300
247 243 239 235 232 230 230 227 225 225 226 226 225 227 228 227 227 227 226 227 229 230 230 232 234 234 237 241 245 250 255 255 255 258 261 264 268 274 281 288 293 298 300
242 238 236 233 230 229 229 227 224 223 223 224 224 225 225 226 226 226 226 226 227 228 231 233 234 236 238 240 242 244 248 253 256 258 258 261 265 271 279 287 293 296 300
238 235 234 232 230 229 229 228 226 223 222 221 221 223 223 223 223 224 223 223 224 227 230 233 235 238 239 238 238 241 246 248 252 254 256 260 265 271 277 284 291 295 299
Height
5550 5552 5553 5555 5556 5558 5561 5564 5566 5568 5571 5574 5577 5581 5585 5590 5595 5599 5604 5609 5613 5617 5621 5626 5631 5636 5641 5645 5649 5653 5656 5659 5661 5664 5665 5666 5666 5667 5666 5665 5664 5662 5660
5541 5542 5543 5544 5546 5548 5550 5553 5555 5558 5561 5563 5566 5570 5574 5579 5584 5589 5594 5599 5603 5607 5612 5616 5621 5626 5631 5635 5640 5643 5646 5649 5651 5653 5654 5655 5656 5657 5656 5655 5654 5652 5650
5531 5532 5533 5534 5536 5538 5540 5543 5545 5547 5550 5553 5556 5560 5564 5569 5574 5579 5584 5589 5593 5597 5602 5607 5612 5616 5621 5626 5630 5634 5636 5639 5641 5643 5644 5645 5646 5646 5646 5645 5644 5642 5640
5520 5522 5524 5525 5527 5529 5531 5533 5535 5537 5540 5543 5546 5550 5554 5559 5564 5569 5574 5579 5584 5588 5593 5598 5603 5608 5613 5617 5621 5624 5626 5629 5631 5633 5634 5635 5636 5636 5636 5635 5633 5631 5629
5511 5513 5514 5516 5518 5520 5522 5523 5525 5528 5530 5533 5537 5541 5545 5550 5555 5560 5565 5570 5575 5580 5585 5590 5594 5599 5603 5607 5611 5614 5617 5619 5621 5623 5624 5625 5626 5626 5626 5625 5623 5621 5619
5502 5504 5506 5507 5509 5511 5513 5515 5517 5518 5521 5524 5528 5532 5536 5541 5546 5552 5556 5562 5567 5572 5576 5581 5585 5589 5593 5597 5601 5604 5608 5610 5612 5613 5615 5615 5616 5616 5615 5614 5613 5611 5610
5495 5496 5497 5499 5501 5503 5505 5506 5508 5510 5513 5516 5520 5524 5528 5533 5538 5543 5548 5553 5558 5563 5567 5572 5576 5580 5584 5587 5591 5594 5597 5600 5602 5604 5605 5606 5606 5606 5605 5604 5602 5600 5599
5487 5488 5489 5491 5493 5495 5497 5499 5501 5503 5506 5509 5513 5517 5521 5526 5530 5535 5540 5545 5550 5554 5559 5563 5567 5571 5575 5578 5582 5585 5588 5590 5592 5594 5596 5596 5596 5596 5595 5594 5592 5590 5588
5480 5481 5482 5484 5486 5488 5489 5492 5494 5496 5499 5503 5506 5509 5514 5518 5522 5527 5531 5536 5541 5545 5549 5554 5558 5562 5566 5569 5573 5576 5579 5581 5583 5585 5585 5586 5586 5586 5585 5584 5582 5580 5578
5473 5474 5475 5477 5478 5480 5482 5484 5487 5489 5492 5495 5499 5502 5506 5510 5514 5519 5524 5528 5533 5537 5541 5545 5549 5553 5557 5561 5564 5567 5570 5573 5574 5575 5576 5577 5577 5576 5576 5574 5573 5571 5568
5467 5468 5469 5470 5471 5473 5475 5477 5479 5482 5485 5488 5491 5495 5498 5502 5507 5511 5516 5520 5525 5529 5533 5537 5541 5545 5549 5552 5556 5559 5562 5564 5565 5566 5567 5568 5568 5567 5566 5565 5563 5561 5559
5459 5461 5462 5463 5464 5466 5468 5470 5472 5474 5477 5480 5483 5487 5491 5495 5499 5503 5508 5512 5517 5521 5525 5529 5533 5537 5541 5544 5547 5550 5553 5555 5556 5558 5559 5559 5559 5559 5558 5557 5555 5552 5550
5452 5453 5454 5455 5456 5458 5460 5462 5464 5467 5470 5473 5476 5479 5483 5487 5491 5495 5500 5505 5509 5513 5518 5522 5526 5530 5533 5536 5539 5542 5544 5546 5548 5549 5550 5551 5551 5551 5550 5548 5546 5544 5541
5444 5445 5447 5448 5449 5451 5453 5455 5457 5460 5462 5465 5468 5472 5476 5480 5484 5488 5493 5497 5502 5506 5510 5514 5518 5522 5525 5528 5531 5534 5536 5538 5540 5541 5542 5543 5543 5542 5541 5539 5538 5535 5533
5437 5438 5439 5440 5442 5444 5446 5448 5450 5453 5456 5459 5462 5466 5470 5473 5478 5482 5486 5490 5494 5499 5503 5506 5510 5514 5517 5520 5523 5526 5528 5530 5532 5533 5534 5535 5534 5533 5532 5531 5529 5527 5524
5430 5431 5432 5434 5435 5437 5438 5441 5443 5446 5449 5452 5456 5460 5463 5467 5471 5475 5480 5483 5487 5492 5496 5499 5503 5506 5510 5513 5516 5518 5520 5522 5524 5525 5526 5526 5526 5525 5524 5522 5520 5518 5515
5423 5424 5425 5427 5428 5430 5432 5434 5437 5440 5442 5446 5449 5453 5457 5461 5465 5469 5473 5477 5480 5484 5488 5492 5496 5499 5502 5505 5508 5510 5512 5514 5516 5517 5517 5518 5517 5517 5516 5514 5512 5509 5506
5417 5418 5419 5420 5422 5423 5425 5427 5430 5433 5436 5439 5443 5447 5451 5454 5458 5462 5466 5470 5474 5477 5481 5485 5489 5492 5495 5497 5500 5502 5505 5507 5508 5509 5509 5509 5509 5508 5507 5506 5504 5501 5498
5410 5411 5412 5414 5415 5417 5419 5421 5424 5427 5430 5433 5436 5440 5444 5448 5452 5456 5460 5464 5467 5471 5474 5478 5481 5484 5487 5490 5492 5495 5497 5499 5500 5501 5501 5501 5501 5500 5499 5498 5496 5493 5491
5403 5404 5405 5407 5409 5411 5413 5416 5419 5421 5424 5428 5431 5434 5438 5442 5446 5450 5453 5457 5461 5464 5468 5471 5474 5477 5480 5483 5485 5487 5489 5491 5492 5493 5493 5493 5493 5493 5492 5490 5489 5487 5484
5396 5397 5398 5400 5402 5404 5407 5410 5413 5416 5419 5422 5425 5428 5432 5436 5440 5444 5447 5451 5455 5458 5461 5465 5468 5470 5473 5476 5478 5480 5481 5483 5484 5485 5486 5486 5486 5486 5485 5484 5482 5480 5477
5389 5390 5392 5393 5395 5397 5400 5403 5407 5410 5413 5416 5419 5423 5426 5431 5434 5438 5442 5445 5448 5452 5455 5458 5461 5464 5466 5469 5471 5473 5474 5476 5477 5478 5479 5479 5479 5479 5478 5477 5475 5473 5471
5383 5384 5385 5387 5389 5391 5394 5397 5400 5404 5407 5410 5414 5417 5421 5425 5429 5432 5436 5439 5443 5446 5449 5452 5454 5457 5460 5462 5464 5466 5468 5469 5470 5471 5472 5473 5473 5473 5472 5471 5469 5467 5465
5376 5377 5379 5381 5383 5386 5389 5392 5395 5398 5402 5405 5408 5412 5416 5419 5423 5427 5430 5434 5437 5440 5443 5446 5448 5451 5454 5456 5458 5460 5462 5463 5464 5465 5466 5467 5468 5467 5467 5466 5464 5462 5459
5369 5371 5373 5375 5377 5380 5383 5386 5389 5393 5396 5400 5403 5407 5410 5414 5417 5421 5424 5428 5431 5435 5437 5440 5442 5445 5448 5450 5452 5454 5455 5457 5458 5460 5461 5461 5462 5462 5461 5460 5459 5457 5454
5363 5365 5367 5369 5372 5374 5378 5381 5384 5387 5391 5394 5398 5402 5405 5409 5412 5416 5419 5423 5426 5429 5432 5435 5437 5440 5442 5445 5447 5448 5450 5451 5453 5454 5455 5456 5456 5456 5456 5455 5453 5452 5450